Oakes, ND

12:10 PM CDT on May 27, 2017 (GMT -0500)
Oakes

Weather History for K2D5 - February, 2013

Change the Weather History Date:

Tuesday, February 26, 2013

  Actual Average (KP67) Record (KP67)
Temperature  
Mean Temperature 8 °F -  
Max Temperature 14 °F 27 °F 42 °F (1998)
Min Temperature 1 °F 11 °F 1 °F (1997)
Degree Days  
Heating Degree Days 58    
Moisture  
Dew Point 7 °F    
Average Humidity 96    
Maximum Humidity 100    
Minimum Humidity 85    
Precipitation  
Precipitation 0.10 in - - ()
Sea Level Pressure  
Sea Level Pressure 30.01 in    
Wind  
Wind Speed 5 mph (SSW)    
Max Wind Speed 9 mph    
Max Gust Speed -    
Visibility 7 miles    
Events Fog , Rain , Snow    
Averages and records for this station are not official NWS values.
T = Trace of Precipitation, MM = Missing Value Source: NWS Daily Summary

Daily Weather History Graph

Daily Weather History Graph

Search for Another Location

Airport or City:

Trip Planner

Search our weather history database for the weather conditions in past years. The results will help you decide how hot, cold, wet, or windy it might be!

Date:

Astronomy

Feb. 26, 2013 Rise Set
Actual Time 7:16 AM CST 6:14 PM CST
Civil Twilight 6:46 AM CST 6:45 PM CST
Nautical Twilight 6:11 AM CST 7:19 PM CST
Astronomical Twilight 5:36 AM CST 7:54 PM CST
Moon 7:40 PM CST (2/26) 7:13 AM CST (2/26)
Length of Visible Light 11h 58m
Length of Day
10h 58m
Full, 99% of the Moon is Illuminated
Feb 26
Full
Mar 4
Last Quarter
Mar 11
New
Mar 19
First Quarter
Mar 27
Full

Hourly Weather History & Observations

Time (CST) Temp. Windchill Dew Point Humidity Pressure Visibility Wind Dir Wind Speed Gust Speed Precip Events Conditions
12:15 AM 5.0 °F -8.1 °F 1.4 °F 85% 29.97 in - South 8.1 mph - N/A   Unknown
12:35 AM 1.4 °F -12.5 °F -0.4 °F 92% 29.97 in - South 8.1 mph - N/A   Unknown
12:55 AM 1.4 °F -13.5 °F -0.4 °F 92% 29.97 in - South 9.2 mph - N/A   Unknown
1:15 AM 1.4 °F -11.3 °F -0.4 °F 92% 29.97 in - South 6.9 mph - N/A   Unknown
1:35 AM 1.4 °F -8.3 °F -0.4 °F 92% 29.97 in - SSE 4.6 mph - N/A   Unknown
1:55 AM 1.4 °F -11.3 °F -0.4 °F 92% 29.97 in - SSE 6.9 mph - N/A   Unknown
2:15 AM 1.4 °F -12.5 °F -0.4 °F 92% 29.98 in - SSE 8.1 mph - N/A   Unknown
2:35 AM 1.4 °F -8.3 °F -0.4 °F 92% 29.98 in - SSE 4.6 mph - N/A   Unknown
2:55 AM 1.4 °F -12.5 °F -0.4 °F 92% 29.98 in - SSE 8.1 mph - N/A   Unknown
3:15 AM 1.4 °F -8.3 °F -0.4 °F 92% 29.97 in - South 4.6 mph - N/A   Unknown
3:35 AM 1.4 °F -11.3 °F -0.4 °F 92% 29.98 in - SSE 6.9 mph - N/A   Unknown
3:55 AM 3.2 °F -9.1 °F 1.4 °F 92% 29.97 in - South 6.9 mph - N/A   Unknown
4:15 AM 5.0 °F -5.6 °F 3.2 °F 92% 29.97 in - SSE 5.8 mph - N/A   Unknown
4:35 AM 5.0 °F -5.6 °F 5.0 °F 100% 29.98 in - SSE 5.8 mph - N/A   Unknown
4:55 AM 6.8 °F -4.8 °F 5.0 °F 92% 29.98 in - South 6.9 mph - N/A   Unknown
5:15 AM 6.8 °F - 5.0 °F 92% 29.98 in - North - - N/A Snow Heavy Snow
5:35 AM 6.8 °F - 5.0 °F 92% 29.98 in - North - - N/A   Unknown
6:15 AM 6.8 °F -3.5 °F 5.0 °F 92% 29.99 in - South 5.8 mph - N/A   Unknown
6:35 AM 6.8 °F -3.5 °F 5.0 °F 92% 29.99 in - South 5.8 mph - N/A Snow Heavy Snow
6:55 AM 6.8 °F -2.0 °F 6.8 °F 100% 29.98 in - SSW 4.6 mph - N/A   Unknown
7:15 AM 6.8 °F -5.9 °F 6.8 °F 100% 29.98 in - South 8.1 mph - N/A Snow Heavy Snow
7:35 AM 8.6 °F -2.6 °F 6.8 °F 92% 29.98 in - South 6.9 mph - N/A Snow Heavy Snow
7:55 AM 8.6 °F 2.0 °F 6.8 °F 92% 29.97 in - SSW 3.5 mph - N/A Snow Heavy Snow
8:15 AM 8.6 °F - 6.8 °F 92% 29.97 in - North - - N/A Snow Heavy Snow
8:35 AM 8.6 °F - 6.8 °F 92% 29.98 in - North - - N/A Snow Heavy Snow
8:55 AM 8.6 °F - 6.8 °F 92% 29.98 in 0.2 mi North - - 0.10 in Snow Heavy Snow
9:15 AM 8.6 °F 2.0 °F 6.8 °F 92% 29.99 in 0.2 mi South 3.5 mph - N/A Fog Light Freezing Fog
9:35 AM 8.6 °F 0.1 °F 8.6 °F 100% 30.00 in 0.2 mi South 4.6 mph - N/A Fog Light Freezing Fog
9:55 AM 8.6 °F 2.0 °F 8.6 °F 100% 30.00 in 0.2 mi SSE 3.5 mph - N/A Snow Heavy Snow
10:15 AM 8.6 °F 0.1 °F 8.6 °F 100% 30.01 in 0.2 mi SSE 4.6 mph - N/A Snow Heavy Snow
10:35 AM 8.6 °F 0.1 °F 8.6 °F 100% 30.01 in 0.2 mi SSE 4.6 mph - N/A Snow Heavy Snow
10:55 AM 8.6 °F 0.1 °F 8.6 °F 100% 30.01 in 0.5 mi SE 4.6 mph - N/A Fog Light Freezing Fog
11:15 AM 10.4 °F 4.0 °F 8.6 °F 92% 30.01 in 1.8 mi SSE 3.5 mph - N/A Snow Light Snow
11:35 AM 10.4 °F - 10.4 °F 100% 30.01 in 3.0 mi Calm Calm - N/A   Mist
11:55 AM 10.4 °F - 10.4 °F 100% 30.02 in 3.0 mi Calm Calm - N/A Rain Light Freezing Rain
12:15 PM 10.4 °F - 10.4 °F 100% 30.02 in 4.0 mi Calm Calm - N/A   Mist
12:35 PM 10.4 °F - 10.4 °F 100% 30.02 in 5.0 mi Calm Calm - N/A   Mist
12:55 PM 14.0 °F - 14.0 °F 100% 30.02 in 5.0 mi Calm Calm - N/A Rain Light Freezing Rain
1:15 PM 12.2 °F - 12.2 °F 100% 30.01 in 7.0 mi Calm Calm - N/A   Unknown
1:35 PM 14.0 °F - 14.0 °F 100% 30.01 in 7.0 mi Calm Calm - N/A   Unknown
1:55 PM 14.0 °F 8.2 °F 14.0 °F 100% 30.00 in 8.0 mi NW 3.5 mph - N/A   Unknown
2:15 PM 14.0 °F 6.5 °F 14.0 °F 100% 30.00 in 8.0 mi NNW 4.6 mph - N/A   Unknown
2:35 PM 14.0 °F - 14.0 °F 100% 30.00 in 9.0 mi Calm Calm - N/A   Unknown
2:55 PM 14.0 °F - 14.0 °F 100% 30.01 in 9.0 mi Calm Calm - N/A   Unknown
3:15 PM 14.0 °F - 14.0 °F 100% 30.01 in 9.0 mi Calm Calm - N/A   Unknown
3:35 PM 14.0 °F - 14.0 °F 100% 30.01 in 9.0 mi Calm Calm - N/A   Unknown
3:55 PM 14.0 °F - 14.0 °F 100% 30.01 in 9.0 mi Calm Calm - N/A   Unknown
4:15 PM 14.0 °F - 14.0 °F 100% 30.01 in 10.0 mi Calm Calm - N/A   Unknown
4:35 PM 14.0 °F - 14.0 °F 100% 30.01 in 10.0 mi Calm Calm - N/A   Unknown
4:55 PM 14.0 °F - 12.2 °F 93% 30.01 in 10.0 mi Calm Calm - N/A   Unknown
5:15 PM 14.0 °F - 12.2 °F 93% 30.01 in 9.0 mi Calm Calm - N/A   Unknown
5:35 PM 14.0 °F - 10.4 °F 86% 30.01 in 9.0 mi Calm Calm - N/A   Unknown
5:55 PM 12.2 °F - 10.4 °F 92% 30.01 in 9.0 mi Calm Calm - N/A   Unknown
6:15 PM 12.2 °F - 10.4 °F 92% 30.02 in 9.0 mi Calm Calm - N/A   Unknown
6:35 PM 12.2 °F - 10.4 °F 92% 30.03 in 9.0 mi Calm Calm - N/A   Unknown
6:55 PM 12.2 °F - 10.4 °F 92% 30.03 in 10.0 mi Calm Calm - N/A   Unknown
7:15 PM 10.4 °F - 10.4 °F 100% 30.03 in 10.0 mi Calm Calm - N/A   Unknown
7:35 PM 10.4 °F - 8.6 °F 92% 30.03 in 9.0 mi Calm Calm - N/A   Unknown
7:55 PM 8.6 °F 2.0 °F 8.6 °F 100% 30.04 in 8.0 mi NW 3.5 mph - N/A   Unknown
8:15 PM 8.6 °F 0.1 °F 6.8 °F 92% 30.04 in 7.0 mi WNW 4.6 mph - N/A   Unknown
8:35 PM 6.8 °F -4.8 °F 6.8 °F 100% 30.05 in 7.0 mi WNW 6.9 mph - N/A   Unknown
8:55 PM 6.8 °F -3.5 °F 6.8 °F 100% 30.04 in 8.0 mi NW 5.8 mph - N/A   Unknown
9:15 PM 6.8 °F -4.8 °F 6.8 °F 100% 30.05 in 8.0 mi WNW 6.9 mph - N/A   Unknown
9:35 PM 6.8 °F -5.9 °F 5.0 °F 92% 30.05 in 8.0 mi WNW 8.1 mph - N/A   Unknown
9:55 PM 6.8 °F -3.5 °F 6.8 °F 100% 30.05 in 8.0 mi WNW 5.8 mph - N/A   Unknown
10:15 PM 6.8 °F -3.5 °F 6.8 °F 100% 30.06 in 9.0 mi WNW 5.8 mph - N/A   Unknown
10:55 PM 8.6 °F 2.0 °F 6.8 °F 92% 30.06 in 10.0 mi NNW 3.5 mph - N/A   Unknown
11:15 PM 6.8 °F -2.0 °F 6.8 °F 100% 30.06 in 10.0 mi NNW 4.6 mph - N/A   Unknown
11:35 PM 6.8 °F -3.5 °F 6.8 °F 100% 30.06 in 10.0 mi NNW 5.8 mph - N/A   Unknown
11:55 PM 6.8 °F -3.5 °F 6.8 °F 100% 30.06 in 10.0 mi NNW 5.8 mph - N/A   Unknown